"2009-05-10 00:00:00",872957,1.652,303.6,19.11,1.084,15.09,105.473,13.28,14.44,34.21,0,110.5,13.25,14.08,265.6
"2009-05-10 00:00:30",872958,0.719,345.5,28.64,0.804,12.76,105.473,13.28,14.28,34.02,0,110.5,13.25,14.08,307.5
"2009-05-10 00:01:00",872959,1.062,304.7,11.21,0.251,12.38,105.4736,13.28,14.29,33.91,0,110.5,13.28,14.08,266.7
"2009-05-10 00:01:30",872960,0.786,296.3,10.3,0.119,12.36,105.473,13.28,14.3,33.74,0,110.5,13.28,14.08,258.3
"2009-05-10 00:02:00",872961,0.657,290.7,4.701,0.133,12.36,105.4736,13.28,14.31,33.68,0,110.5,13.29,14.08,252.7
"2009-05-10 00:02:30",872962,0.317,248.5,15.88,0.115,12.48,105.4753,13.29,14.32,33.68,0,110.5,13.29,14.09,210.5
"2009-05-10 00:03:00",872963,0.121,248.2,25.06,0.091,12.51,105.478,13.3,14.32,33.61,0,110.5,13.29,14.09,210.2
"2009-05-10 00:03:30",872964,0.6,289,4.662,0.093,12.47,105.4806,13.3,14.33,33.59,0,110.5,13.29,14.10,251.0
"2009-05-10 00:04:00",872965,1.416,291.1,7.397,1.224,13.71,105.4875,13.32,14.34,33.57,0,110.5,13.25,14.12,253.1
"2009-05-10 00:04:30",872966,0.911,272.2,10.45,0.941,14.49,105.4956,13.34,14.52,33.7,0,110.5,13.25,14.14,234.2
"2009-05-10 00:05:00",872967,0.749,288.9,17,1.158,13.73,105.5091,13.38,14.37,33.52,0,110.5,13.25,14.17,250.9
"2009-05-10 00:05:30",872968,-0.053,16.1,57.13,0.042,12.5,105.5183,13.4,14.36,33.49,0,110.5,13.29,14.20,338.1
"2009-05-10 00:06:00",872969,0.002,3.426,61.49,0.077,12.43,105.5246,13.42,14.39,33.46,0,110.5,13.29,14.21,325.4
"2009-05-10 00:06:30",872970,1.345,278.1,12.08,1.515,14.55,105.5283,13.42,14.62,33.66,0,110.5,13.26,14.22,240.1
"2009-05-10 00:07:00",872971,2.449,281.3,10.82,1.364,16.11,105.5281,13.42,14.66,33.68,0,110.5,13.26,14.22,243.3
"2009-05-10 00:07:30",872972,1.69,290.8,15.27,1.144,13.19,105.5294,13.43,14.4,33.47,0,110.5,13.26,14.23,252.8
"2009-05-10 00:08:00",872973,1.002,296.2,6.367,0.129,11.6,105.5306,13.43,14.4,33.58,0,110.5,13.29,14.23,258.2
"2009-05-10 00:08:30",872974,1.137,305.5,10.66,0.202,11.27,105.5324,13.44,14.41,33.58,0,110.5,13.29,14.23,267.5
"2009-05-10 00:09:00",872975,1.039,290,24.63,0.183,11.49,105.5328,13.44,14.4,33.56,0,110.5,13.29,14.24,252.0
"2009-05-10 00:09:30",872976,0.91,291,13.11,0.176,11.63,105.5331,13.44,14.41,33.59,0,110.5,13.29,14.24,253.0
"2009-05-10 00:10:00",872977,0.535,274.9,10.17,0.086,11.79,105.532,13.43,14.43,33.49,0,110.5,13.3,14.23,236.9
"2009-05-10 00:10:30",872978,0.457,282.5,8.02,0.138,11.92,105.5306,13.43,14.42,33.43,0,110.5,13.3,14.23,244.5
"2009-05-10 00:11:00",872979,0.53,305.5,9.19,0.107,12.02,105.5272,13.42,14.43,33.44,0,110.5,13.3,14.22,267.5
"2009-05-10 00:11:30",872980,0.591,280.1,10.63,0.175,12.28,105.5224,13.41,14.43,33.39,0,110.5,13.3,14.21,242.1
"2009-05-10 00:12:00",872981,1,307.8,24.08,1.208,13.1,105.5168,13.4,14.42,33.33,0,110.5,13.26,14.19,269.8
"2009-05-10 00:12:30",872982,1.944,298.1,25.05,1.567,15.08,105.5111,13.38,14.61,33.52,0,110.5,13.25,14.18,260.1
"2009-05-10 00:13:00",872983,0.684,326.9,13.22,0.162,12.43,105.5089,13.38,14.44,33.35,0,110.5,13.29,14.17,288.9
"2009-05-10 00:13:30",872984,0.353,330.8,17.23,0.092,12.29,105.5086,13.37,14.42,33.34,0,110.5,13.29,14.17,292.8
"2009-05-10 00:14:00",872985,0.224,342,41.34,0.119,12.35,105.5086,13.37,14.43,33.33,0,110.5,13.29,14.17,304.0
"2009-05-10 00:14:30",872986,0.459,53.38,4.968,0.087,12.38,105.5086,13.37,14.43,33.32,0,110.5,13.29,14.17,15.4
"2009-05-10 00:15:00",872987,0.298,61,6.647,0.033,12.56,105.5086,13.37,14.41,33.25,0,110.5,13.29,14.17,23.0
"2009-05-10 00:15:30",872988,0.356,33.73,31.38,0.108,12.66,105.5086,13.37,14.42,33.22,0,110.5,13.29,14.17,355.7
"2009-05-10 00:16:00",872989,1.294,37.93,22.89,1.298,14.83,105.5086,13.37,14.48,33.32,0,110.5,13.26,14.17,359.9
"2009-05-10 00:16:30",872990,0.867,22.28,22.85,1.171,14.9,105.5086,13.37,14.57,33.48,0,110.5,13.26,14.17,344.3
"2009-05-10 00:17:00",872991,0.247,312.3,35.41,0.113,12.67,105.5086,13.37,14.41,33.41,0,110.5,13.3,14.17,274.3
"2009-05-10 00:17:30",872992,0.44,251.3,12.78,0.11,12.59,105.5086,13.37,14.41,33.64,0,110.5,13.3,14.17,213.3
"2009-05-10 00:18:00",872993,0.266,217.5,80.7,0.254,12.67,105.4957,13.34,14.4,34.21,0,110.5,13.3,14.14,179.5
"2009-05-10 00:18:30",872994,2.614,38.17,8.61,1.243,14.95,105.4748,13.29,14.47,34.89,0,110.5,13.26,14.09,0.2
"2009-05-10 00:19:00",872995,3.197,27.25,12,1.283,15.52,105.4748,13.29,14.61,35.35,0,110.5,13.26,14.09,349.2
"2009-05-10 00:19:30",872996,1.989,12.07,17.99,1.078,13.61,105.4748,13.29,14.42,35.66,0,110.5,13.26,14.09,334.1
"2009-05-10 00:20:00",872997,2.445,24,4.943,0.26,11.7,105.4748,13.29,14.34,35.33,0,110.5,13.3,14.09,346.0
"2009-05-10 00:20:30",872998,2.117,18.31,4.594,0.391,11.63,105.4748,13.29,14.33,35.06,0,110.5,13.3,14.09,340.3
"2009-05-10 00:21:00",872999,2.274,27.03,5.918,0.224,11.78,105.4748,13.29,14.34,34.85,0,110.5,13.3,14.09,349.0
"2009-05-10 00:21:30",873000,2.873,23.69,3.577,0.296,12.06,105.4748,13.29,14.32,34.77,0,110.5,13.3,14.09,345.7
"2009-05-10 00:22:00",873001,3.062,28.34,3.06,0.427,12.42,105.4748,13.29,14.31,34.43,0,110.5,13.3,14.09,350.3
"2009-05-10 00:22:30",873002,4.587,37.62,9.33,1.525,15.15,105.476,13.29,14.44,34.58,0,110.5,13.27,14.09,359.6
"2009-05-10 00:23:00",873003,2.996,38.6,9.21,0.946,13.84,105.4753,13.29,14.46,34.73,0,110.5,13.27,14.09,0.6
"2009-05-10 00:23:30",873004,4.061,47.74,8.5,1.391,14.63,105.4687,13.27,14.47,34.57,0,110.5,13.27,14.07,9.7
"2009-05-10 00:24:00",873005,2.934,49.53,3.587,0.339,12.63,105.4627,13.26,14.33,34.15,0,110.5,13.3,14.06,11.5
"2009-05-10 00:24:30",873006,2.512,29.46,12.54,0.335,12.37,105.4561,13.24,14.31,34.23,0,110.5,13.3,14.04,351.5
"2009-05-10 00:25:00",873007,3.798,25.8,11.92,1.652,14.16,105.4609,13.25,14.39,34.76,0,110.5,13.27,14.05,347.8
"2009-05-10 00:25:30",873008,4.377,25.71,14.39,1.688,15.46,105.4636,13.26,14.55,36.03,0,110.5,13.27,14.06,347.7
"2009-05-10 00:26:00",873009,3.144,40.68,11.97,0.656,12.04,105.4698,13.28,14.39,36.05,0,110.5,13.31,14.07,2.7
"2009-05-10 00:26:30",873010,2.779,38.21,7.705,0.521,11.75,105.4746,13.29,14.29,35.39,0,110.5,13.3,14.09,0.2
"2009-05-10 00:27:00",873011,1.403,5.279,19.21,0.457,11.86,105.4749,13.29,14.28,34.97,0,110.5,13.31,14.09,327.3
"2009-05-10 00:27:30",873012,2.306,14.31,18.05,0.435,11.86,105.4755,13.29,14.27,34.99,0,110.5,13.31,14.09,336.3
"2009-05-10 00:28:00",873013,2.376,43.59,4.84,0.327,12.06,105.4707,13.28,14.27,34.71,0,110.5,13.31,14.08,5.6
"2009-05-10 00:28:30",873014,1.676,30.52,9.04,0.217,12.38,105.4623,13.26,14.28,34.64,0,110.5,13.31,14.05,352.5
"2009-05-10 00:29:00",873015,1.743,38.51,3.429,0.18,12.66,105.4471,13.22,14.26,34.49,0,110.4,13.31,14.02,0.5
"2009-05-10 00:29:30",873016,1.302,22.56,5.783,0.176,12.98,105.4431,13.21,14.26,34.42,0,110.4,13.31,14.00,344.6
"2009-05-10 00:30:00",873017,1.472,16.17,8.96,0.77,14.22,105.4429,13.21,14.4,34.59,0,110.5,13.27,14.00,338.2
"2009-05-10 00:30:30",873018,3.036,20.02,16.41,1.489,16.71,105.4429,13.21,14.54,34.93,0,110.4,13.27,14.00,342.0
"2009-05-10 00:31:00",873019,2.501,27.56,5.569,1.158,13.76,105.4429,13.21,14.25,34.93,0,110.4,13.27,14.00,349.6
"2009-05-10 00:31:30",873020,1.913,27.35,5.263,0.189,12.5,105.4429,13.21,14.25,34.77,0,110.4,13.3,14.00,349.4
"2009-05-10 00:32:00",873021,2.03,28.86,7.842,0.186,12.33,105.4429,13.21,14.24,34.88,0,110.4,13.3,14.00,350.9
"2009-05-10 00:32:30",873022,3.312,43.93,10.41,1.402,14.26,105.4429,13.21,14.39,34.88,0,110.4,13.27,14.00,5.9
"2009-05-10 00:33:00",873023,3.076,24.8,10.92,1.437,14.5,105.4429,13.21,14.31,34.96,0,110.4,13.27,14.00,346.8
"2009-05-10 00:33:30",873024,2.77,33.86,7.181,1.362,13.88,105.4429,13.21,14.41,35.04,0,110.4,13.27,14.00,355.9
"2009-05-10 00:34:00",873025,2.745,29.27,6.377,0.642,12.25,105.4426,13.21,14.24,34.69,0,110.4,13.27,14.00,351.3
"2009-05-10 00:34:30",873026,2.057,25.51,3.405,0.191,11.76,105.442,13.2,14.23,34.64,0,110.4,13.31,14.00,347.5
"2009-05-10 00:35:00",873027,2.189,22.69,1.887,0.154,11.89,105.4392,13.2,14.23,34.42,0,110.4,13.32,13.99,344.7
"2009-05-10 00:35:30",873028,1.664,14.86,12.02,0.642,12.07,105.4369,13.19,14.22,34.46,0,110.4,13.32,13.99,336.9
"2009-05-10 00:36:00",873029,3.15,351.7,14.09,0.537,12.26,105.4291,13.17,14.21,35.03,0,110.4,13.32,13.97,313.7
"2009-05-10 00:36:30",873030,3.154,336.8,4.053,0.232,12.4,105.424,13.16,14.21,35.16,0,110.4,13.32,13.96,298.8
"2009-05-10 00:37:00",873031,1.856,356.7,18.68,0.833,13.47,105.4189,13.14,14.35,35.43,0,110.4,13.32,13.94,318.7
"2009-05-10 00:37:30",873032,1.919,11.87,28.21,1.412,14.3,105.4147,13.13,14.25,35.37,0,110.4,13.28,13.93,333.9
"2009-05-10 00:38:00",873033,1.159,358.9,13.08,0.512,12.8,105.4121,13.13,14.21,35.42,0,110.4,13.32,13.93,320.9
"2009-05-10 00:38:30",873034,0.957,46.15,35.52,0.245,12.75,105.4093,13.12,14.21,35.45,0,110.4,13.32,13.92,8.2
"2009-05-10 00:39:00",873035,2.296,23.34,20.56,1.147,15.4,105.4097,13.12,14.38,35.56,0,110.4,13.28,13.92,345.3
"2009-05-10 00:39:30",873036,2.031,15.16,17.01,1.364,14.73,105.4093,13.12,14.3,35.62,0,110.4,13.28,13.92,337.2
"2009-05-10 00:40:00",873037,1.758,26.68,7.571,0.875,13.41,105.4105,13.12,14.36,35.97,0,110.4,13.28,13.92,348.7
"2009-05-10 00:40:30",873038,1.828,35.91,5.893,0.414,11.88,105.412,13.13,14.21,36.04,0,110.4,13.32,13.92,357.9
"2009-05-10 00:41:00",873039,2.953,44.15,9.55,1.774,14.34,105.4147,13.13,14.35,36.69,0,110.4,13.28,13.93,6.2
"2009-05-10 00:41:30",873040,1.734,37.57,19.63,0.872,12.53,105.4192,13.15,14.35,36.61,0,110.4,13.28,13.94,359.6
"2009-05-10 00:42:00",873041,2.348,57.89,6.359,0.341,11.71,105.4218,13.15,14.19,36.26,0,110.4,13.32,13.95,19.9
"2009-05-10 00:42:30",873042,3.616,50.56,2.878,0.308,11.82,105.426,13.16,14.19,35.54,0,110.4,13.32,13.96,12.6
"2009-05-10 00:43:00",873043,3.363,56.45,3.835,0.717,12.15,105.4278,13.17,14.19,35.33,0,110.4,13.32,13.97,18.5
"2009-05-10 00:43:30",873044,2.5,49.37,6.505,0.187,12.44,105.4275,13.17,14.2,35.35,0,110.4,13.32,13.96,11.4
"2009-05-10 00:44:00",873045,2.196,47.66,5.836,0.467,12.71,105.4322,13.18,14.17,35.72,0,110.4,13.29,13.98,9.7
"2009-05-10 00:44:30",873046,3.094,68.13,14.03,1.431,14.93,105.4321,13.18,14.3,36.21,0,110.4,13.29,13.98,30.1
"2009-05-10 00:45:00",873047,2.323,93.7,8.25,1.013,13.66,105.4311,13.18,14.17,35.58,0,110.4,13.29,13.97,55.7
"2009-05-10 00:45:30",873048,2.138,94.1,2.935,0.25,13.43,105.433,13.18,14.15,34.96,0,110.4,13.32,13.98,56.1
"2009-05-10 00:46:00",873049,3.535,91.4,5.156,1.107,13.87,105.4322,13.18,14.31,35.18,0,110.4,13.28,13.98,53.4
"2009-05-10 00:46:30",873050,5.333,105.7,9.02,1.487,15.89,105.4314,13.18,14.26,35.2,0,110.4,13.28,13.97,67.7
"2009-05-10 00:47:00",873051,5.482,120.5,7.123,1.206,16.25,105.423,13.16,14.39,35.37,0,110.4,13.28,13.95,82.5
"2009-05-10 00:47:30",873052,4.305,118.9,7.331,1.191,13.42,105.4134,13.13,14.26,35.08,0,110.4,13.28,13.93,80.9
"2009-05-10 00:48:00",873053,4.835,112.7,13.68,1.212,14.21,105.4109,13.12,14.3,36.18,0,110.4,13.28,13.92,74.7
"2009-05-10 00:48:30",873054,4.309,98.3,5.192,0.29,11.6,105.4109,13.12,14.16,36.54,0,110.4,13.32,13.92,60.3
"2009-05-10 00:49:00",873055,4.111,104.8,5.47,0.357,11.7,105.4109,13.12,14.14,36.42,0,110.4,13.32,13.92,66.8
"2009-05-10 00:49:30",873056,2.847,83,6.997,0.336,12.05,105.4109,13.12,14.14,36.38,0,110.4,13.32,13.92,45.0
"2009-05-10 00:50:00",873057,3.503,80.3,12.65,0.516,12.36,105.4109,13.12,14.15,36.54,0,110.4,13.32,13.92,42.3
"2009-05-10 00:50:30",873058,4.222,79.25,9.05,1.155,13.95,105.4109,13.12,14.18,36.92,0,110.4,13.29,13.92,41.2
"2009-05-10 00:51:00",873059,4.672,113.6,9.66,1.383,14.97,105.4109,13.12,14.26,36.54,0,110.4,13.29,13.92,75.6
"2009-05-10 00:51:30",873060,3.676,112.3,2.358,0.238,12.92,105.4103,13.12,14.12,36.49,0,110.4,13.33,13.92,74.3
"2009-05-10 00:52:00",873061,4.058,113.3,3.145,0.125,13.29,105.4058,13.11,14.23,35.89,0,110.4,13.33,13.91,75.3
"2009-05-10 00:52:30",873062,5.992,120.8,5.758,1.161,16.87,105.3971,13.09,14.32,34.87,0,110.4,13.29,13.89,82.8
"2009-05-10 00:53:00",873063,5.526,116.6,7.456,1.318,15.9,105.3895,13.07,14.34,34.47,0,110.4,13.29,13.87,78.6
"2009-05-10 00:53:30",873064,4.2,115.3,3.722,0.925,12.86,105.3819,13.05,14.18,34.15,0,110.4,13.29,13.85,77.3
"2009-05-10 00:54:00",873065,3.886,111.5,4.878,0.687,12.54,105.3782,13.04,14.16,34.09,0,110.4,13.29,13.84,73.5
"2009-05-10 00:54:30",873066,3.468,114.6,2.344,0.131,11.65,105.3773,13.04,14.09,33.9,0,110.4,13.33,13.84,76.6
"2009-05-10 00:55:00",873067,3.355,118.6,2.69,0.127,11.89,105.3771,13.04,14.08,34,0,110.4,13.33,13.84,80.6
"2009-05-10 00:55:30",873068,3.254,119.3,1.675,0.132,12.31,105.3771,13.04,14.08,34.06,0,110.4,13.33,13.84,81.3
"2009-05-10 00:56:00",873069,3.414,117,3.024,0.106,12.53,105.3771,13.04,14.15,33.92,0,110.4,13.33,13.84,79.0
"2009-05-10 00:56:30",873070,4.843,130.2,8.06,1.481,15.06,105.3771,13.04,14.14,33.87,0,110.4,13.29,13.84,92.2
"2009-05-10 00:57:00",873071,4.739,130.4,7.504,1.243,15.26,105.3771,13.04,14.24,33.98,0,110.4,13.29,13.84,92.4
"2009-05-10 00:57:30",873072,3.461,118.3,4.794,0.103,13.02,105.3771,13.04,14.08,33.75,0,110.4,13.33,13.84,80.3
"2009-05-10 00:58:00",873073,4.226,120.8,8.89,1.347,15.02,105.3771,13.04,14.26,33.98,0,110.4,13.29,13.84,82.8
"2009-05-10 00:58:30",873074,5.443,121.8,6.365,1.302,15.05,105.3771,13.04,14.16,34.38,0,110.4,13.3,13.84,83.8
"2009-05-10 00:59:00",873075,6.259,125.2,6.919,1.209,16.27,105.3771,13.04,14.35,35.01,0,110.4,13.29,13.84,87.2
"2009-05-10 00:59:30",873076,6.359,124.9,5.897,1.276,15.84,105.3771,13.04,14.27,34.99,0,110.4,13.29,13.84,86.9
"2009-05-10 01:00:00",873077,4.764,114.3,2.887,0.092,11.9,105.3771,13.04,14.07,34.94,0,110.4,13.33,13.84,76.3
"2009-05-10 01:00:30",873078,4.592,111.8,3.6,0.1,11.82,105.3774,13.04,14.09,34.95,0,110.4,13.33,13.84,73.8
"2009-05-10 01:01:00",873079,4.578,114.6,2.244,0.122,12.01,105.3777,13.04,14.08,35.16,0,110.4,13.33,13.84,76.6
"2009-05-10 01:01:30",873080,5.233,117.5,3.963,1.066,14.1,105.3783,13.04,14.2,35.47,0,110.4,13.3,13.84,79.5
"2009-05-10 01:02:00",873081,4.409,113,5.758,1.056,13.81,105.378,13.04,14.19,35.61,0,110.4,13.3,13.84,75.0
"2009-05-10 01:02:30",873082,4.537,112.3,7.634,1.251,14.42,105.3789,13.04,14.12,35.54,0,110.4,13.29,13.84,74.3
"2009-05-10 01:03:00",873083,3.947,105.2,3.303,0.165,13.14,105.3806,13.05,14.15,35.8,0,110.4,13.33,13.84,67.2
"2009-05-10 01:03:30",873084,5.387,109.1,6.893,1.335,15.21,105.379,13.04,14.13,35.89,0,110.4,13.29,13.84,71.1
"2009-05-10 01:04:00",873085,4.542,103.9,5.932,1.188,14.46,105.3808,13.05,14.36,36.01,0,110.4,13.29,13.84,65.9
"2009-05-10 01:04:30",873086,5.884,107.7,6.167,1.209,16.05,105.3807,13.05,14.29,35.64,0,110.4,13.29,13.84,69.7
"2009-05-10 01:05:00",873087,5.175,104.3,6.239,1.313,13.46,105.3823,13.05,14.13,35.43,0,110.4,13.29,13.85,66.3
"2009-05-10 01:05:30",873088,4.01,104,4.238,0.138,11.62,105.3816,13.05,14.05,35.3,0,110.4,13.33,13.85,66.0
"2009-05-10 01:06:00",873089,3.801,107.6,1.232,0.194,11.7,105.3795,13.04,14.06,35.71,0,110.3,13.33,13.84,69.6
"2009-05-10 01:06:30",873090,4.016,111.1,3.011,0.114,11.97,105.3712,13.02,14.05,35.92,0,110.3,13.33,13.82,73.1
"2009-05-10 01:07:00",873091,3.402,115.9,1.749,0.193,12.34,105.3687,13.02,14.11,36.16,0,110.3,13.33,13.81,77.9
"2009-05-10 01:07:30",873092,4.559,117.3,7.242,1.323,14.84,105.3679,13.01,14.16,35.93,0,110.3,13.3,13.81,79.3
"2009-05-10 01:08:00",873093,3.474,109,1.999,0.079,12.92,105.3709,13.02,14.1,35.64,0,110.3,13.34,13.82,71.0
"2009-05-10 01:08:30",873094,4.563,112.6,6.057,1.328,13.87,105.3691,13.02,14.05,35.44,0,110.4,13.3,13.81,74.6
"2009-05-10 01:09:00",873095,4.073,106.6,5.964,0.818,13.97,105.3724,13.03,14.19,35.31,0,110.3,13.31,13.82,68.6
"2009-05-10 01:09:30",873096,4.957,115,5.035,1.236,14.31,105.3738,13.03,14.07,35.4,0,110.3,13.31,13.83,77.0
"2009-05-10 01:10:00",873097,5.571,116.4,6.391,1.333,15.69,105.3768,13.04,14.32,35.42,0,110.3,13.31,13.83,78.4
"2009-05-10 01:10:30",873098,5.31,115.1,7.46,1.376,14.58,105.3783,13.04,14.19,35.31,0,110.3,13.3,13.84,77.1
"2009-05-10 01:11:00",873099,4.015,107.3,1.048,0.074,11.79,105.3777,13.04,14.03,35.25,0,110.3,13.34,13.84,69.3
"2009-05-10 01:11:30",873100,4.218,108.4,0.821,0.072,11.71,105.3783,13.04,14.02,35.04,0,110.3,13.34,13.84,70.4
"2009-05-10 01:12:00",873101,4.319,107.7,0.583,0.095,12.01,105.3763,13.04,14.02,34.77,0,110.3,13.34,13.83,69.7
"2009-05-10 01:12:30",873102,4.38,106.9,2.799,0.092,12.68,105.3721,13.02,14.13,34.79,0,110.3,13.34,13.82,68.9
"2009-05-10 01:13:00",873103,5.362,112.4,7.58,1.398,14.38,105.3696,13.02,14.06,34.63,0,110.3,13.31,13.82,74.4
"2009-05-10 01:13:30",873104,4.043,107.9,1.397,0.08,12.93,105.3673,13.01,14.06,34.49,0,110.3,13.34,13.81,69.9
"2009-05-10 01:14:00",873105,4.342,109.7,3.964,0.947,13.24,105.3606,13,14.03,34.43,0,110.3,13.31,13.79,71.7
"2009-05-10 01:14:30",873106,5.216,115.1,7.225,1.388,15.46,105.3527,12.98,14.13,34.53,0,110.3,13.31,13.77,77.1
"2009-05-10 01:15:00",873107,3.848,107.3,2.106,0.081,12.78,105.3473,12.96,14.06,34.48,0,110.3,13.34,13.76,69.3
"2009-05-10 01:15:30",873108,5.802,112.2,7.09,1.204,15.95,105.3459,12.96,14.25,34.63,0,110.3,13.31,13.76,74.2
"2009-05-10 01:16:00",873109,6.06,109.9,6.631,1.267,15.66,105.3453,12.96,14.13,34.58,0,110.3,13.31,13.75,71.9
"2009-05-10 01:16:30",873110,4.42,97.9,1.01,0.093,11.98,105.3451,12.96,14,34.42,0,110.3,13.34,13.75,59.9
"2009-05-10 01:17:00",873111,4.463,95.2,2.1,0.125,11.92,105.3451,12.96,14,34.38,0,110.3,13.35,13.75,57.2
"2009-05-10 01:17:30",873112,4.981,92.2,3.471,0.462,12.09,105.3451,12.96,13.99,34.76,0,110.3,13.35,13.75,54.2
"2009-05-10 01:18:00",873113,6.404,89.2,7.549,1.484,13.76,105.3451,12.96,14.05,36.13,0,110.3,13.31,13.75,51.2
"2009-05-10 01:18:30",873114,7.501,90,8.13,1.381,14.88,105.3451,12.96,14.1,36.53,0,110.3,13.31,13.75,52.0
"2009-05-10 01:19:00",873115,6.939,91.8,4.604,0.307,13.31,105.3451,12.96,14.1,36.38,0,110.3,13.31,13.75,53.8
"2009-05-10 01:19:30",873116,8.46,98.1,6.197,1.31,16.74,105.3451,12.96,14.19,36.81,0,110.3,13.31,13.75,60.1
"2009-05-10 01:20:00",873117,6.643,91.5,6.162,1.202,13.68,105.3451,12.96,14.11,36.17,0,110.3,13.3,13.75,53.5
"2009-05-10 01:20:30",873118,7.243,96.2,4.806,1.058,13.07,105.3434,12.95,14.11,36.39,0,110.3,13.3,13.75,58.2
"2009-05-10 01:21:00",873119,7.737,99.7,5.977,1.311,13.58,105.3287,12.91,14.01,36.44,0,110.3,13.3,13.71,61.7
"2009-05-10 01:21:30",873120,6.848,96.6,1.273,0.179,11.75,105.3112,12.87,13.94,36.4,0,110.3,13.33,13.67,58.6
"2009-05-10 01:22:00",873121,6.467,97.4,0.666,0.058,12.3,105.3112,12.87,14.02,36.32,0,110.3,13.34,13.67,59.4
"2009-05-10 01:22:30",873122,7.526,102.9,6.371,1.344,14.88,105.3109,12.87,13.99,36.01,0,110.3,13.3,13.67,64.9
"2009-05-10 01:23:00",873123,7.264,102.7,7.435,1.266,15.77,105.3056,12.85,14.15,36.17,0,110.3,13.3,13.65,64.7
"2009-05-10 01:23:30",873124,7.199,102.7,8.49,1.118,15.64,105.2859,12.8,14.1,36.08,0,110.3,13.31,13.60,64.7
"2009-05-10 01:24:00",873125,6.566,98.1,7.07,1.274,14.21,105.2774,12.78,14.03,35.76,0,110.3,13.31,13.58,60.1
"2009-05-10 01:24:30",873126,7.633,103.3,6.697,1.263,15.54,105.2774,12.78,13.99,35.73,0,110.3,13.31,13.58,65.3
"2009-05-10 01:25:00",873127,7.234,101.2,7.31,1.277,13.93,105.2774,12.78,13.99,35.81,0,110.3,13.31,13.58,63.2
"2009-05-10 01:25:30",873128,6.31,99.7,1.61,0.188,11.83,105.2774,12.78,13.89,36.03,0,110.3,13.35,13.58,61.7
"2009-05-10 01:26:00",873129,6.333,100.3,1.92,0.48,11.99,105.2774,12.78,13.83,36.06,0,110.3,13.35,13.58,62.3
"2009-05-10 01:26:30",873130,6.88,101.7,1.928,0.16,12.38,105.2751,12.78,13.82,36.17,0,110.3,13.35,13.57,63.7
"2009-05-10 01:27:00",873131,7.985,111.1,6.52,1.279,14.93,105.2689,12.76,13.93,36.3,0,110.3,13.31,13.56,73.1
"2009-05-10 01:27:30",873132,8.86,115,7.116,1.252,16.52,105.2574,12.73,14.1,36.49,0,110.3,13.31,13.53,77.0
"2009-05-10 01:28:00",873133,8.74,114.4,8.3,1.419,15.57,105.2439,12.7,14.02,36.5,0,110.3,13.31,13.49,76.4
"2009-05-10 01:28:30",873134,8.4,113.6,6.378,1.375,14.81,105.2439,12.7,13.95,36.47,0,110.3,13.31,13.49,75.6
"2009-05-10 01:29:00",873135,8.2,110.3,6.373,1.389,13.72,105.2436,12.7,13.83,36.5,0,110.3,13.31,13.49,72.3
"2009-05-10 01:29:30",873136,7.897,110.8,6.473,1.302,13.87,105.2436,12.7,13.92,36.58,0,110.3,13.31,13.49,72.8
"2009-05-10 01:30:00",873137,6.651,105.5,0.545,0.061,11.81,105.2442,12.7,13.77,36.44,0,110.3,13.35,13.49,67.5
"2009-05-10 01:30:30",873138,6.533,105.8,0.555,0.082,12.07,105.2386,12.68,13.74,36.46,0,110.3,13.35,13.48,67.8
"2009-05-10 01:31:00",873139,7.74,111.9,6.809,1.347,14.24,105.235,12.67,13.77,36.44,0,110.3,13.31,13.47,73.9
"2009-05-10 01:31:30",873140,8.15,115.5,6.805,1.327,15.58,105.216,12.63,13.92,36.67,0,110.3,13.32,13.42,77.5
"2009-05-10 01:32:00",873141,8.48,115.2,6.708,1.256,16.11,105.2163,12.63,13.98,36.76,0,110.3,13.32,13.42,77.2
"2009-05-10 01:32:30",873142,8.31,113.6,6.904,1.354,15.56,105.2163,12.63,13.85,36.64,0,110.3,13.32,13.42,75.6
"2009-05-10 01:33:00",873143,7.156,111.3,6.148,1.191,13.36,105.216,12.63,13.82,36.27,0,110.3,13.32,13.42,73.3
"2009-05-10 01:33:30",873144,7.07,110.2,4.94,1.032,12.36,105.218,12.63,13.78,36.06,0,110.3,13.32,13.43,72.2
"2009-05-10 01:34:00",873145,7.463,113.3,6.663,1.257,13.35,105.2184,12.63,13.74,36.01,0,110.3,13.32,13.43,75.3
"2009-05-10 01:34:30",873146,6.372,109.3,0.877,0.078,11.84,105.2062,12.6,13.67,36.01,0,110.3,13.35,13.40,71.3
"2009-05-10 01:35:00",873147,6.351,109.7,0.429,0.059,12.32,105.1965,12.58,13.65,35.82,0,110.3,13.35,13.37,71.7
"2009-05-10 01:35:30",873148,7.437,114.4,6.68,1.338,14.65,105.1897,12.56,13.76,35.74,0,110.3,13.31,13.35,76.4
"2009-05-10 01:36:00",873149,7.719,115.6,6.991,1.317,15.66,105.1863,12.55,13.88,35.74,0,110.3,13.31,13.35,77.6
"2009-05-10 01:36:30",873150,7.884,117,6.817,1.245,15.73,105.1872,12.55,13.77,35.45,0,110.3,13.31,13.35,79.0
"2009-05-10 01:37:00",873151,6.891,111.8,6.356,1.252,13.99,105.1907,12.56,13.79,35.42,0,110.3,13.31,13.36,73.8
"2009-05-10 01:37:30",873152,7.152,111.4,6.171,1.252,13.37,105.1925,12.57,13.63,35.35,0,110.3,13.31,13.36,73.4
"2009-05-10 01:38:00",873153,7.414,114.9,7.114,1.301,13.95,105.1928,12.57,13.73,35.6,0,110.3,13.31,13.36,76.9
"2009-05-10 01:38:30",873154,6.239,109,0.765,0.053,11.91,105.194,12.57,13.63,35.26,0,110.3,13.35,13.36,71.0
"2009-05-10 01:39:00",873155,6.091,108.8,1.295,0.093,12.01,105.1937,12.57,13.61,34.96,0,110.3,13.35,13.36,70.8
"2009-05-10 01:39:30",873156,6.152,109.8,2.909,0.081,12.67,105.1993,12.58,13.66,35.01,0,110.3,13.35,13.38,71.8
"2009-05-10 01:40:00",873157,8.11,120.2,6.477,1.341,16.22,105.1979,12.58,13.86,35.02,0,110.3,13.31,13.37,82.2
"2009-05-10 01:40:30",873158,8.53,121.7,6.219,1.191,16.5,105.2014,12.59,13.87,34.94,0,110.3,13.32,13.38,83.7
"2009-05-10 01:41:00",873159,7.071,114.1,5.403,1.088,13.19,105.2044,12.6,13.68,34.66,0,110.3,13.32,13.39,76.1
"2009-05-10 01:41:30",873160,8.21,119.1,6.639,1.294,15.26,105.205,12.6,13.7,34.68,0,110.3,13.32,13.39,81.1
"2009-05-10 01:42:00",873161,6.982,112,5.353,1.066,12.8,105.2076,12.6,13.7,34.87,0,110.3,13.32,13.40,74.0
"2009-05-10 01:42:30",873162,7.552,115.7,5.885,1.325,13.55,105.2079,12.6,13.63,34.81,0,110.3,13.32,13.40,77.7
"2009-05-10 01:43:00",873163,6.322,110.3,1.453,0.084,12.03,105.2091,12.61,13.58,34.62,0,110.3,13.36,13.40,72.3
"2009-05-10 01:43:30",873164,6.51,109,1.393,0.123,12.22,105.2095,12.61,13.58,34.73,0,110.3,13.36,13.40,71.0
"2009-05-10 01:44:00",873165,8.13,115.7,6.225,1.298,15.4,105.2055,12.6,13.78,35.09,0,110.3,13.33,13.39,77.7
"2009-05-10 01:44:30",873166,7.877,113.2,6.879,1.309,15.38,105.203,12.59,13.82,35.54,0,110.3,13.33,13.39,75.2
"2009-05-10 01:45:00",873167,8.23,115.2,5.614,1.262,16.01,105.1962,12.57,13.8,35.73,0,110.3,13.33,13.37,77.2
"2009-05-10 01:45:30",873168,6.602,105.3,3.599,0.781,12.64,105.1858,12.55,13.68,35.63,0,110.3,13.33,13.34,67.3
"2009-05-10 01:46:00",873169,7.629,110.7,5.976,1.315,13.99,105.1776,12.53,13.64,35.52,0,110.3,13.33,13.32,72.7
"2009-05-10 01:46:30",873170,7.59,110.5,6.369,1.28,13.9,105.1771,12.53,13.69,35.43,0,110.3,13.33,13.32,72.5
"2009-05-10 01:47:00",873171,6.625,103.7,1.267,0.091,11.77,105.1777,12.53,13.56,35.47,0,110.3,13.36,13.32,65.7
"2009-05-10 01:47:30",873172,6.802,103.4,1.21,0.109,12.02,105.1777,12.53,13.56,35.55,0,110.3,13.36,13.32,65.4
"2009-05-10 01:48:00",873173,7.462,109.1,7.053,1.241,14.34,105.1777,12.53,13.75,35.77,0,110.3,13.33,13.32,71.1
"2009-05-10 01:48:30",873174,8.04,113,6.933,1.271,15.45,105.1777,12.53,13.8,35.77,0,110.3,13.33,13.32,75.0